Location: Hungerford
(51.4167°N, 1.5167°W)
Time: 04:07:41
(UTC+00:00)

Landsat 7 - Pass Details

Date: 18 September 2020
Orbit: 701 x 703 km, 98.1° (Epoch: 20 October)

Event Time Altitude Azimuth Distance (km) Brightness Sun altitude
Exits shadow 21:04:38 87° 206° (SSW) 712 3.7 -25.5°
Maximum altitude 21:04:42 88° 251° (WSW) 712 3.7 -25.5°
Drops below altitude 10° 21:09:30 10° 345° (NNW) 2,184 7.1 -26.1°
Sets 21:11:46 0° 346° (NNW) 3,107 8.0 -26.3°
